Powrót do katalogu

TITAN 3C TRANSTAGE DEB

AktywnyLEO
NORAD 1915·DEBRIS·🇺🇸 United States

Wystrzelony Oct 15, 1965 z Cape Canaveral Space Force Station

Loading…

Następne Przeloty (najbliższe 24 godziny)

TLE

ŚwieżeSource: Space-Track

Epoka: Sep 14, 2026, 00:30 UTC

1 01915U 65082FZ  26257.02121666  .00000347  00000-0  64222-4 0  9997
2 01915  31.8759 128.4287 0028744 359.8382   0.2244 14.58526400228409

Śledź TITAN 3C TRANSTAGE DEB w czasie rzeczywistym z AllMySat

Download on the App Store